Regional Weather Roundup
Issued by NWS Sterling, VA

Home | Current Version | Previous Version | Graphics & Text | Print | Product List | Glossary On
Versions: 1 2 3 4 5 6 7 8 9 10 11 12 13 14 15 16 17 18 19 20 21 22 23 24 25 26 27 28 29 30 31 32 33 34 35 36 37 38 39 40 41 42 43 44 45 46 47 48 49 50
000
ASUS41 KLWX 250510
RWRLWX

REGIONAL WEATHER ROUNDUP
NATIONAL WEATHER SERVICE BALTIMORE MD/WASHINGTON DC
100 AM EDT FRI JUL 25 2014

Note: "FAIR" indicates few or no clouds below 12,000 feet
with no significant weather and/or obstructions to visibility.
 TC=TEMPERATURE CELSIUS

 * =Non NWS site. Station does not report precipitation (e.g. rain,
    snow, etc.), thunder, or fog.

DCZ001-MDZ009-015-VAZ040>042-051-053>054-250600-
WASHINGTON METRO
  /KDAA//-FT BELVOIR

CITY           SKY/WX    TMP DP  RH WIND       PRES   REMARKS
WASHINGTON NAT PTCLDY    72  55  55 N6        29.98R
DULLES         PTCLDY    61  59  93 CALM      29.99R
ANDREWS AFB    MOCLDY    66  58  74 N6        29.97R
QUANTICO       CLEAR     66  64  93 NW10      29.98R
COLLEGE PARK*  PTCLDY    63  63 100 CALM      29.97R
LEESBURG*      CLEAR     63  61  94 NW5       30.01R
MANASSAS*      CLEAR     63  63 100 CALM      29.99R
GAITHERSBURG*  CLEAR     61  55  82 CALM      30.03R

$$

MDZ006>007-011-014-250600-
BALTIMORE METRO

CITY           SKY/WX    TMP DP  RH WIND       PRES   REMARKS
BWI AIRPORT    PTCLDY    61  55  81 NW3       29.97R
MD SCIENCE CTR   N/A     71  54  54 MISG      29.97R
MARTIN STATE   PTCLDY    64  55  72 NW3       29.98R
ANNAPOLIS      CLOUDY    73  60  63 N7        29.95R
FORT MEADE*    PTCLDY    59  57  94 CALM      30.00R

$$

MDZ012-015-019>023-250600-
MARYLAND EASTERN SHORE

CITY           SKY/WX    TMP DP  RH WIND       PRES   REMARKS
OCEAN CITY     CLOUDY    70  67  90 NW3       29.91R
SALISBURY      NOT AVBL
BAY BRIDGE AP*   N/A     72  54  53 N7        29.95R
CAMBRIDGE*     MOCLDY    72  59  64 N5        29.93R
EASTON*        MOCLDY    69  62  78 N5        29.98R

$$

MDZ017>025-250600-
SOUTHERN MARYLAND

CITY           SKY/WX    TMP DP  RH WIND       PRES   REMARKS
PATUXENT RIVER CLOUDY    70  66  87 NW8       29.93R
ST INIGOES     CLOUDY    72  66  81 VRB3      29.93R
LEONARDTOWN*   CLOUDY    64  63  94 CALM      29.96R

$$

MDZ003>005-250600-
NORTH CENTRAL MARYLAND

CITY           SKY/WX    TMP DP  RH WIND       PRES   REMARKS
FREDERICK*     CLEAR     61  61 100 CALM      30.02R
HAGERSTOWN APT CLEAR     65  54  67 N7        30.01R
WESTMINSTER*   PTCLDY    63  59  88 CALM      30.01R

$$

MDZ501>502-250600-
WESTERN MARYLAND

CITY           SKY/WX    TMP DP  RH WIND       PRES   REMARKS
OAKLAND*       PTCLDY    55  54  94 N3        30.11S
CUMBERLAND*    NOT AVBL

$$

VAZ025>031-250600-
SHENANDOAH VALLEY

CITY           SKY/WX    TMP DP  RH WIND       PRES   REMARKS
WINCHESTER*    CLOUDY    63  57  82 W3        30.02R
STAUNTON*      CLOUDY    67  64  91 N3        30.05R FOG

$$

WVZ021-048>050-054>055-250600-
EASTERN WEST VIRGINIA PANHANDLE

CITY           SKY/WX    TMP DP  RH WIND       PRES   REMARKS
MARTINSBURG    PTCLDY    61  56  83 CALM      30.02R
PETERSBURG*    PTCLDY    60  56  85 CALM      30.06R

$$

VAZ036>039-050-250600-
CENTRAL FOOTHILLS

CITY           SKY/WX    TMP DP  RH WIND       PRES   REMARKS
CHARLOTTESVILL CLOUDY    65  64  97 CALM      30.00R FOG
ORANGE*        CLEAR     64  63  94 CALM      30.01R

$$

VAZ055>057-250600-
NORTH AND CENTRAL PIEDMONT

CITY           SKY/WX    TMP DP  RH WIND       PRES   REMARKS
FREDERICKSBRG* FOG       66  66 100 NW3       29.96R VSB 1/2
STAFFORD*      CLEAR     63  63 100 NW8       30.01R FOG

$$

NCZ024-NYZ072-PAZ021-071-VAZ022-071-250600-
OTHER REGIONAL OBSERVATIONS

CITY           SKY/WX    TMP DP  RH WIND       PRES   REMARKS
NEW YORK CITY  MOCLDY    70  52  52 VRB5      29.95R
PHILADELPHIA   PTCLDY    70  52  52 N8        29.94R
PITTSBURGH     CLEAR     61  49  64 N5        30.08R
ROANOKE        HVY RAIN  68  66  93 S3        30.05R FOG
RICHMOND       MOCLDY    70  67  90 NW5       29.95S FOG
RALEIGH        MOCLDY    69  65  86 VRB3      29.99R

$$

ANZ530>537-250600-
MARINE OBSERVATIONS

STATION/POSITION TIME  TEMP    WIND        PRES
                       AIR SEA DIR/SP/G
                 (UTC) (F)     (DEG/KT/KT) (MB)
THOMAS PT LIGHT  0500   75 79   10/ 15/ 17 1014.5R
BALT KEY BRIDGE  0500   72     350/ 10/ 12 1013.9R
COVE POINT       0500   76      20/ 11/ 14 1013.4S
LEWISETTA        0500   70 80  290/  5/  6 1013.5S
SOLOMONS ISLAND  0500      80                N/A
PINEY POINT      0500          340/ 11/ 12   N/A

$$




USA.gov is the U.S. government's official web portal to all federal, state and local government web resources and services.